Flag for U.S.A. Weather past 2 weeks in Duluth, Minnesota, U.S.A.

Now
72 °F

Sunny.


Feels Like: 75 °F
Forecast: 62 / 78 °F
Wind: No wind

Location: Sky Harbor Airport

Current Time: Aug 2, 2015 at 10:26:39 AM

Latest Report: Aug 2, 2015 at 9:54 AM


Visibility: 10 mi

Pressure: 29.61 "Hg

Humidity: 69%

Dew point: 61 °F

Location of DuluthLocation

Historic Weather in Duluth — Graph

°F

Duluth temperature yesterday

Maximum temperature yesterday: 82 °F (at 2:53 PM)
Minimum temperature yesterday: 57 °F (at 6:33 AM)
Average temperature yesterday: 72 °F

Past Weeks' High & Low Weather Summary

 TemperatureHumidityPressure
High90 °F (Jul 26, 1:34 PM)94% (Jul 23, 4:54 AM)30.01 "Hg (Jul 23, 4:54 AM)
Low57 °F (Aug 1, 6:33 AM)34% (Jul 20, 6:13 PM)29.59 "Hg (Aug 2, 8:34 AM)
Average74 °F68%29.86 "Hg
* Reported Jul 18 9:13 AM — Aug 2 9:34 AM, Duluth, Weather by CustomWeather, © 2015

Note: Actual official high and low records may vary slightly from our data, if they occured in-between our weather recording intervals... More about our weather records

Advertising

Duluth weather history for previous 24 hours

 ConditionsComfort  
Time TempWeatherWind HumidityBarometerVisibility
9:34 AM
Sun, Aug 2
72 °FLight rain. Broken clouds.No wind65%29.60 "Hg10 mi
9:13 AM72 °FThundershowers. Partly sunny.8 mph69%29.64 "Hg10 mi
8:54 AM72 °FSunny.3 mph69%29.61 "Hg10 mi
8:34 AM72 °FSunny.3 mph69%29.59 "Hg10 mi
8:13 AM70 °FThundershowers. Scattered clouds.No wind78%29.62 "Hg10 mi
7:54 AM70 °FSunny.No wind73%29.64 "Hg10 mi
7:34 AM68 °FSunny.7 mph83%29.64 "Hg10 mi
7:13 AM68 °FSunny.5 mph83%29.64 "Hg10 mi
6:54 AM66 °FSunny.6 mph88%29.65 "Hg10 mi
6:34 AM66 °FClear.6 mph88%29.64 "Hg10 mi
6:13 AM64 °FClear.6 mph88%29.63 "Hg10 mi
5:54 AM64 °FClear.6 mph88%29.64 "Hg10 mi
5:33 AM63 °FThunderstorms. Clear.6 mph83%29.64 "Hg10 mi
5:14 AM61 °FThunderstorms. Clear.7 mph88%29.65 "Hg10 mi
4:53 AM59 °FPassing clouds.13 mph88%29.65 "Hg10 mi
4:34 AM70 °FPassing clouds.5 mph78%29.66 "Hg10 mi
4:13 AM70 °FClear.5 mph78%29.65 "Hg10 mi
3:54 AM70 °FClear.5 mph78%29.66 "Hg10 mi
3:34 AM68 °FClear.5 mph83%29.65 "Hg10 mi
3:13 AM66 °FClear.5 mph88%29.65 "Hg10 mi
2:54 AM66 °FClear.3 mph88%29.65 "Hg10 mi
2:34 AM66 °FClear.6 mph83%29.64 "Hg10 mi
2:13 AM66 °FClear.5 mph83%29.65 "Hg10 mi
1:54 AM66 °FClear.3 mph88%29.65 "Hg10 mi
1:33 AM66 °FClear.5 mph83%29.66 "Hg10 mi
1:14 AM66 °FClear.5 mph83%29.66 "Hg10 mi
12:54 AM66 °FClear.5 mph88%29.67 "Hg10 mi
12:33 AM66 °FClear.5 mph88%29.68 "Hg10 mi
12:14 AM66 °FClear.3 mph88%29.70 "Hg10 mi
11:54 PM
Sat, Aug 1
68 °FClear.No wind83%29.71 "Hg10 mi
11:14 PM70 °FClear.6 mph78%29.72 "Hg10 mi
10:53 PM70 °FClear.8 mph78%29.72 "Hg10 mi
10:34 PM72 °FClear.8 mph73%29.73 "Hg10 mi
10:14 PM72 °FClear.9 mph73%29.73 "Hg10 mi
9:54 PM72 °FClear.7 mph73%29.73 "Hg10 mi
9:33 PM73 °FSunny.9 mph69%29.73 "Hg10 mi
8:54 PM75 °FSunny.10 mph61%29.73 "Hg10 mi
8:33 PM75 °FSunny.10 mph61%29.73 "Hg10 mi
8:14 PM77 °FSunny.9 mph57%29.74 "Hg10 mi
7:33 PM79 °FSunny.12 mph51%29.75 "Hg10 mi
7:14 PM81 °FSunny.13 mph45%29.76 "Hg10 mi
6:54 PM81 °FSunny.13 mph45%29.76 "Hg10 mi
6:33 PM81 °FSunny.10 mph45%29.77 "Hg10 mi
6:14 PM82 °FSunny.14 mph40%29.78 "Hg10 mi
5:54 PM82 °FSunny.15 mph40%29.78 "Hg10 mi
5:33 PM82 °FSunny.15 mph37%29.79 "Hg10 mi
4:34 PM82 °FSunny.14 mph40%29.81 "Hg10 mi
4:13 PM82 °FScattered clouds.16 mph37%29.81 "Hg10 mi
3:54 PM82 °FScattered clouds.13 mph35%29.82 "Hg10 mi
3:33 PM82 °FScattered clouds.15 mph35%29.83 "Hg10 mi
3:14 PM82 °FScattered clouds.15 mph35%29.83 "Hg10 mi
2:53 PM82 °FSunny.8 mph37%29.84 "Hg10 mi
2:14 PM81 °FScattered clouds.17 mph39%29.86 "Hg10 mi
1:54 PM81 °FScattered clouds.13 mph37%29.86 "Hg10 mi
1:33 PM81 °FScattered clouds.14 mph37%29.87 "Hg10 mi
1:14 PM81 °FScattered clouds.16 mph37%29.87 "Hg10 mi
12:53 PM79 °FScattered clouds.14 mph42%29.88 "Hg10 mi
12:14 PM79 °FScattered clouds.14 mph42%29.89 "Hg10 mi
11:53 AM79 °FScattered clouds.14 mph42%29.90 "Hg10 mi
11:33 AM79 °FScattered clouds.15 mph42%29.90 "Hg10 mi
11:14 AM79 °FSunny.15 mph42%29.91 "Hg10 mi
10:54 AM77 °FSunny.7 mph47%29.91 "Hg10 mi
10:13 AM75 °FSunny.8 mph50%29.91 "Hg10 mi
Weather by CustomWeather, © 2015

See weather overviewHow to use our weather pages